User: anonymous   Login
Location: Beddau
(51.5575°N, 3.3561°W)
Time: 15:57:40
(UTC+00:00)
Language:

FALCON 9 DEB - Orbit

View from above orbital plane
View from above orbital plane
View from above satellite
View from above satellite

Ground track
Ground track

The orbit data is extracted from the following two-line orbital elements,

1 46084U 20055BK  21131.90273704  .00011102  00000-0  12333-3 0  9994
2 46084  53.0147  17.9109 0013918 124.3431 235.8901 15.63406687 47949
Epoch (UTC): 11 May 2021 21:39:56
Eccentricity: 0.0013918
inclination: 53.0147°
perigee height: 368 km
apogee height: 387 km
right ascension of ascending node: 17.9109°
argument of perigee: 124.3431°
revolutions per day: 15.63406687
mean anomaly at epoch: 235.8901°
orbit number at epoch: 4794

The dashed part of the orbit path shows where the satellite is in the earth's shadow,  

DLR